Content
SEND FEEDBACK

Daily
Averages
Monthly
Summary
Israel

TEL AVIV, ISRAEL


Home > Middle East > Israel
Elevation: 161 feet     Latitude: 32 00N     Longitude: 034 54E

WEATHER
 
SELECT A DAY
Number of Records: 166,263;   Date Range: 7/1/96 - 7/28/14
 
SHARE

PRINT THIS DATA

[ ← Previous Day ]
WEATHER ALMANAC - JANUARY 23, 2013
[ Next Day → ]
[ °C ]   °F
Weather ElementAverageHighLow
Temperature60.1 °F68 °F (12:50 pm)55.4 °F (2:50 am)
Dewpoint51.6 °F57.2 °F (9:50 am)46.4 °F (2:50 pm)
Humidity74 %88 % (1:50 am)39 % (2:00 pm)
Barometer30.11 in30.15 in (9:50 am)30.06 in (1:50 am)
Wind Speed7.5 mph92.1 mph (11:50 pm)
Weather ElementAverage
Visibility6.2 mi
Wind DirectionSSE (151.5 °)

Weather ElementTotal
Precipitation---
Heating Degree Days3.3 (Base 65)
Growing Degree Days11.7 (Base 50)
Averaged from 27 records on January 23, 2013
WEATHER CONDITIONS BREAKOUT
WIND DIRECTION BREAKOUT
WEATHER BY HOUR - JANUARY 23, 2013
[ °C ]   °F
Local TimeTemperatureDewpointHumidityBarometerVisibilityWind DirectionWind SpeedGust SpeedPrecipitationEventsConditions
1:50 AM57.2 °F53.6 °F88 %30.06 in6.2 miSSE (160°)3.5 mphScattered Clouds
2:00 AM57.0 °F53.0 °F81 %30.08 in6.0 miSSE (160°)3.5 mphPartly Cloudy
2:50 AM55.4 °F51.8 °F88 %30.06 in6.2 miCalmScattered Clouds
3:50 AM55.4 °F51.8 °F88 %30.06 in6.2 miCalmScattered Clouds
4:50 AM55.4 °F51.8 °F88 %30.06 in6.2 miEast (90°)2.3 mphScattered Clouds
5:50 AM55.4 °F51.8 °F88 %30.09 in6.2 miEast (90°)2.3 mphScattered Clouds
6:50 AM55.4 °F51.8 °F88 %30.09 in6.2 miESE (120°)1.2 mphScattered Clouds
7:50 AM57.2 °F53.6 °F88 %30.12 in6.2 miEast (90°)2.3 mphScattered Clouds
8:00 AM57.0 °F53.0 °F82 %30.14 in6.0 miEast (90°)2.3 mphPartly Cloudy
8:50 AM60.8 °F55.4 °F82 %30.12 in6.2 miSE (140°)8.1 mphScattered Clouds
9:50 AM64.4 °F57.2 °F77 %30.15 in6.2 miSW (220°)9.2 mphPartly Cloudy
10:50 AM64.4 °F51.8 °F64 %30.12 in6.2 miSouth (180°)5.8 mphMostly Cloudy
11:50 AM66.2 °F51.8 °F60 %30.09 in6.2 miSW (230°)4.6 mphMostly Cloudy
12:50 PM68.0 °F50.0 °F52 %30.09 in6.2 miWSW (240°)5.8 mphScattered Clouds
1:50 PM68.0 °F48.2 °F49 %30.09 in6.2 miWNW (290°)6.9 mphScattered Clouds
2:00 PM67.0 °F48.0 °F39 %30.12 in6.0 miWNW (290°)6.9 mphPartly Cloudy
2:50 PM66.2 °F46.4 °F49 %30.12 in6.2 miWest (270°)5.8 mphPartly Cloudy
3:50 PM66.2 °F50.0 °F56 %30.12 in6.2 miWest (280°)5.8 mphPartly Cloudy
4:50 PM64.4 °F51.8 °F64 %30.12 inSW (230°)9.2 mphClear
5:50 PM60.8 °F53.6 °F77 %30.12 inSW (220°)4.6 mphClear
6:50 PM59.0 °F51.8 °F77 %30.15 inWSW (250°)4.6 mphClear
7:50 PM59.0 °F51.8 °F77 %30.15 inESE (110°)4.6 mphClear
8:00 PM59.0 °F52.0 °F72 %30.15 in6.0 miESE (110°)4.6 mph
8:50 PM59.0 °F51.8 °F77 %30.15 in6.2 miEast (80°)3.5 mphPartly Cloudy
9:50 PM55.4 °F50.0 °F82 %30.15 in6.2 miEast (90°)1.2 mphPartly Cloudy
10:50 PM55.4 °F50.0 °F82 %30.15 inNE (40°)2.3 mphClear
11:50 PM55.4 °F50.0 °F82 %30.15 inNNE (20°)92.1 mphClear
Hourly data recorded from LLBG, located miles away from Tel Aviv, Israel







STORIES FROM OUR PARTNERS